Location: St. Louis
(38.6270°N, 90.1994°W)
Time: 19:33:35
(UTC-06:00)

Courier 1B Rocket - Pass Details

Date: 06 December 2021
Orbit: 920 x 1202 km, 28.2° (Epoch: 21 January)

Event Time Altitude Azimuth Distance (km) Brightness Sun altitude
Rises 02:07:16 0° 259° (W) 3,562 - -57.0°
Reaches altitude 10° 02:10:36 10° 243° (WSW) 2,605 - -56.4°
Maximum altitude 02:14:55 20° 199° (SSW) 2,003 - -55.6°
Drops below altitude 10° 02:19:14 10° 155° (SSE) 2,620 - -54.8°
Sets 02:22:36 0° 138° (SE) 3,589 - -54.1°
